Location: Shenandoah County Park
(38.9356°N, 78.4524°W)
Time: 10:21:14
(UTC-04:00)

BEESAT 3 - Visible Passes

Search period start: 21 March 2023 00:00
Search period end: 31 March 2023 00:00
Orbit: 414 x 441 km, 64.9° (Epoch: 21 March)

Date Brightness Start Highest point End Pass type
(mag) Time Alt. Az. Time Alt. Az. Time Alt. Az.
21 Mar ? 05:49:36 43° SW 05:50:38 82° WNW 05:54:07 10° NNE visible
22 Mar ? 05:07:39 38° E 05:07:39 38° E 05:10:19 10° NE visible
22 Mar ? 06:41:09 10° WNW 06:42:59 14° NW 06:44:49 10° NNW visible
23 Mar ? 04:25:25 13° ENE 04:25:25 13° ENE 04:25:57 10° ENE visible
23 Mar ? 05:58:36 24° WNW 05:58:57 24° NW 06:01:50 10° N visible
24 Mar ? 05:16:06 32° N 05:16:06 32° N 05:18:14 10° NNE visible
25 Mar ? 04:33:22 16° NE 04:33:22 16° NE 04:34:09 10° NE visible
26 Mar ? 05:23:34 15° NNW 05:23:34 15° NNW 05:24:40 10° N visible
27 Mar ? 04:40:23 13° N 04:40:23 13° N 04:40:49 10° NNE visible
